Total_Precipitation_Accumulation
2.05 2.10 1.98 1.93 1.86 1.86 1.88 1.85 1.82 1.81 1.75 1.78 1.92 1.99 1.96 2.02 2.12 2.22 2.04 2.10 2.07 2.10 2.11 2.22 2.29 2.47 2.45 2.37 2.50 2.55 2.59 2.66 2.33 1.84 1.86 2.00 2.03 1.88 1.89 1.82 1.81 1.80 1.73
1.77 1.80 1.80 1.81 1.79 1.71 1.67 1.74 1.80 1.71 1.63 1.70 1.78 1.77 1.71 1.84 2.03 2.05 1.96 2.03 2.08 2.05 2.20 2.40 2.33 2.45 2.53 2.56 2.73 2.57 2.62 2.92 2.78 2.36 2.25 2.36 2.28 2.13 2.09 2.00 1.73 1.61 1.60
1.49 1.53 1.55 1.57 1.54 1.52 1.53 1.59 1.67 1.69 1.70 1.70 1.68 1.61 1.62 1.70 1.81 1.82 1.98 2.13 2.14 2.20 2.37 2.48 2.53 2.76 2.61 2.66 2.67 2.59 2.63 2.87 3.05 2.74 2.48 2.60 2.52 2.30 2.30 2.04 1.87 1.93 1.67
1.39 1.45 1.59 1.65 1.68 1.69 1.64 1.68 1.77 1.87 1.82 1.84 1.84 1.87 1.89 1.87 1.89 2.00 2.13 2.22 2.26 2.34 2.51 2.55 2.58 2.68 2.75 2.91 2.89 2.92 3.07 3.22 3.35 3.14 2.91 2.97 2.96 2.85 2.68 2.29 2.19 2.09 1.92
1.65 1.71 1.87 2.03 2.06 1.96 1.93 2.00 2.05 2.10 2.03 2.19 2.22 2.25 2.33 2.27 2.08 2.26 2.35 2.34 2.55 2.54 2.61 2.59 2.53 2.68 2.80 2.93 2.78 2.96 3.28 3.43 3.53 3.53 3.42 3.56 3.45 3.35 2.99 2.61 2.49 2.35 2.13
1.52 1.66 1.86 2.06 2.15 2.14 2.19 2.34 2.36 2.31 2.43 2.56 2.53 2.51 2.48 2.18 2.36 2.48 2.48 2.57 2.67 2.63 2.61 2.66 2.59 2.57 2.48 2.53 2.58 2.71 2.94 3.10 3.30 3.51 3.57 3.62 3.60 3.51 3.32 3.02 2.65 2.38 2.16
1.83 1.99 2.07 2.20 2.32 2.34 2.33 2.38 2.42 2.46 2.48 2.55 2.56 2.61 2.46 2.44 2.55 2.38 2.41 2.39 2.49 2.58 2.62 2.66 2.41 2.22 2.31 2.19 2.37 2.47 2.44 2.49 2.59 2.87 3.03 3.03 3.30 3.48 3.43 2.96 2.63 2.33 2.08
1.77 1.91 2.03 2.22 2.35 2.46 2.58 2.60 2.67 2.77 2.80 2.79 2.74 2.74 2.67 2.55 2.53 2.32 2.42 2.29 2.30 2.33 2.38 2.42 2.37 2.25 2.22 2.34 2.34 2.21 2.00 1.96 2.08 2.07 2.12 2.36 2.72 3.14 3.25 3.05 2.99 2.65 2.29
2.12 2.24 2.33 2.41 2.56 2.64 2.69 2.84 2.96 3.06 3.03 3.04 2.99 2.95 2.90 2.89 2.86 2.55 2.46 2.26 2.30 2.29 2.32 2.33 2.29 2.13 2.28 2.25 2.17 2.09 1.94 1.78 1.83 1.88 1.92 2.12 2.42 2.70 2.97 2.98 2.88 2.77 2.43
2.56 2.67 2.75 2.83 2.88 2.84 2.85 2.96 3.01 3.07 3.07 3.07 2.97 2.99 2.93 2.90 3.01 2.75 2.54 2.27 2.28 2.34 2.43 2.41 2.42 2.22 2.27 2.21 2.13 2.10 1.94 1.83 1.87 1.85 1.86 1.91 1.94 2.25 2.61 2.59 2.61 2.68 2.48
2.83 2.88 2.91 3.01 3.16 3.27 3.31 3.12 2.96 2.96 3.04 3.12 3.08 3.11 3.10 3.04 3.04 2.68 2.51 2.37 2.38 2.41 2.36 2.30 2.33 2.37 2.11 1.96 1.89 1.85 1.90 1.99 2.02 1.93 1.84 1.81 1.86 1.96 2.16 2.23 2.31 2.39 2.35
2.76 2.82 2.89 2.94 2.89 2.92 3.18 3.23 3.17 3.08 2.99 3.00 3.08 3.00 2.90 2.85 2.71 2.39 2.17 2.16 2.22 2.21 2.21 2.21 2.25 2.24 1.99 1.77 1.56 1.50 1.61 1.64 1.70 1.77 1.72 1.67 1.69 1.74 1.92 2.20 2.36 2.37 2.30
2.58 2.68 2.86 2.94 2.98 2.94 2.93 3.00 3.01 2.95 2.81 2.64 2.68 2.73 2.73 2.71 2.59 2.30 2.00 1.90 1.93 1.86 1.93 2.15 2.19 2.05 1.88 1.72 1.63 1.56 1.47 1.36 1.45 1.55 1.48 1.49 1.56 1.68 1.90 2.23 2.46 2.64 2.55
2.58 2.58 2.64 2.69 2.72 2.79 2.89 2.84 2.81 2.81 2.76 2.62 2.63 2.66 2.66 2.59 2.38 2.10 1.93 1.84 1.81 1.77 1.86 2.07 2.16 2.14 1.96 1.82 1.74 1.57 1.38 1.35 1.37 1.41 1.47 1.51 1.62 1.72 1.83 2.01 2.31 2.51 2.59
2.35 2.26 2.32 2.45 2.51 2.54 2.68 2.75 2.62 2.55 2.60 2.50 2.56 2.74 2.67 2.44 2.25 2.09 1.84 1.77 1.78 1.86 1.91 2.01 2.15 2.20 2.16 2.02 1.88 1.73 1.59 1.49 1.41 1.36 1.45 1.49 1.54 1.57 1.60 1.68 1.94 2.13 2.13
2.30 2.29 2.28 2.35 2.45 2.50 2.47 2.54 2.56 2.34 2.30 2.16 2.17 2.25 2.28 2.16 2.04 1.97 1.85 1.78 1.74 1.76 1.74 1.84 2.11 2.19 2.22 2.18 2.07 1.87 1.70 1.58 1.51 1.49 1.51 1.50 1.52 1.58 1.63 1.69 1.81 1.97 1.99
2.40 2.48 2.42 2.26 2.20 2.24 2.25 2.21 2.22 2.14 1.89 1.75 1.70 1.67 1.63 1.64 1.66 1.73 1.76 1.71 1.65 1.53 1.41 1.56 1.86 2.06 2.15 2.16 2.06 1.86 1.67 1.66 1.73 1.68 1.63 1.59 1.58 1.60 1.70 1.76 1.83 1.96 2.01
2.08 2.17 2.14 2.02 1.94 1.88 1.86 1.83 1.75 1.79 1.74 1.59 1.52 1.47 1.45 1.45 1.48 1.68 1.82 1.63 1.49 1.41 1.32 1.45 1.68 1.95 2.08 2.14 2.12 2.04 1.88 1.83 1.85 1.82 1.77 1.72 1.69 1.70 1.71 1.73 1.77 1.85 1.89
1.90 1.92 1.86 1.86 1.88 1.89 1.96 1.95 1.82 1.77 1.82 1.79 1.66 1.47 1.48 1.48 1.54 1.81 1.90 1.53 1.40 1.45 1.48 1.50 1.59 1.78 1.97 2.08 2.10 2.09 2.03 1.99 2.00 2.02 1.95 1.90 1.86 1.87 1.82 1.75 1.77 1.87 1.88
1.81 1.95 1.89 1.76 1.77 1.91 2.04 2.01 2.00 2.05 2.02 2.09 2.07 1.77 1.59 1.52 1.45 1.70 1.81 1.66 1.61 1.60 1.58 1.58 1.63 1.77 1.96 2.11 2.15 2.12 2.15 2.10 2.09 2.06 2.00 1.95 1.89 1.89 1.89 1.87 1.89 1.94 1.89
1.73 1.74 1.78 1.69 1.71 1.82 1.92 1.98 1.98 2.00 2.08 2.13 2.11 1.92 1.72 1.50 1.56 1.76 1.97 1.91 1.81 1.79 1.77 1.75 1.79 1.92 2.02 2.09 2.07 1.99 1.98 2.03 2.00 1.96 1.94 1.93 1.88 1.85 1.86 1.91 1.92 1.98 1.96
1.68 1.66 1.66 1.65 1.68 1.73 1.77 1.90 2.03 2.08 2.12 2.18 2.06 1.98 1.93 1.70 1.69 1.82 1.93 1.93 1.90 1.88 1.84 1.84 1.89 1.96 2.00 2.02 2.02 1.97 1.94 1.95 1.94 1.92 1.96 1.96 1.96 1.94 1.97 1.98 1.99 2.04 2.05
1.48 1.55 1.65 1.64 1.63 1.63 1.64 1.70 1.75 1.82 1.93 2.00 1.89 1.86 1.84 1.82 1.75 1.76 1.85 1.86 1.84 1.83 1.77 1.79 1.83 1.82 1.80 1.83 1.83 1.85 1.84 1.82 1.82 1.87 1.97 2.00 2.01 1.99 1.96 1.91 1.89 1.95 1.99
1.19 1.23 1.26 1.32 1.36 1.41 1.48 1.56 1.54 1.55 1.65 1.73 1.68 1.68 1.66 1.65 1.60 1.60 1.63 1.65 1.68 1.70 1.70 1.67 1.68 1.70 1.63 1.59 1.61 1.62 1.58 1.60 1.63 1.70 1.78 1.88 1.92 1.97 1.99 1.95 1.97 1.97 2.01
1.22 1.20 1.17 1.24 1.29 1.32 1.37 1.43 1.48 1.54 1.58 1.57 1.57 1.55 1.54 1.51 1.52 1.54 1.52 1.51 1.49 1.48 1.42 1.42 1.47 1.49 1.49 1.40 1.33 1.32 1.40 1.40 1.38 1.45 1.49 1.63 1.74 1.85 1.90 1.91 1.99 2.05 2.05
1.18 1.22 1.21 1.24 1.27 1.30 1.35 1.40 1.46 1.47 1.45 1.40 1.39 1.42 1.47 1.47 1.43 1.41 1.35 1.33 1.35 1.34 1.29 1.26 1.25 1.28 1.29 1.26 1.25 1.31 1.29 1.16 1.19 1.33 1.34 1.41 1.57 1.66 1.74 1.81 1.80 1.89 1.95